This demonstration page uses our WeatherBlox Daily Observations layout. Learn more.

Left ArrowRight Arrow

Hourly Observations for February 16, 2022

Temp ( °F °C ) Dew Point ( °F °C ) Humidity (%) Winds ( mph kmh ) Pressure ( in mb ) Visibility ( mi km ) Precip ( " mm )
12:56 am 00:56 Clear 37 2.8 22 -5.6 54 54 N 17 28 29.65 1004 10 16 0.00 0.00
1:56 am 01:56 Clear 35 1.7 20 -6.7 54 54 N 21 33 29.65 1004 10 16 0.00 0.00
2:56 am 02:56 Clear 32 0 19 -7.2 59 59 N 16 26 29.68 1005 10 16 0.00 0.00
3:56 am 03:56 Clear 31 -0.6 20 -6.7 64 64 N 21 33 29.70 1006 10 16 0.00 0.00
4:56 am 04:56 Clear 29 -1.7 19 -7.2 66 66 N 16 26 29.72 1006 10 16 0.00 0.00
5:56 am 05:56 Clear 27 -2.8 18 -7.8 69 69 N 15 24 29.74 1007 10 16 0.00 0.00
6:56 am 06:56 Clear 26 -3.3 18 -7.8 71 71 N 24 39 29.78 1008 10 16 0.00 0.00
7:56 am 07:56 Sunny 26 -3.3 18 -7.8 71 71 N 18 30 29.80 1009 10 16 0.00 0.00
8:56 am 08:56 Sunny 27 -2.8 19 -7.2 72 72 N 17 28 29.85 1011 10 16 0.00 0.00
9:17 am 09:17 Mostly Cloudy 28 -2 19 -7 69 69 N 18 30 29.92 1013 10 16 0.00 0.00
9:56 am 09:56 Cloudy 30 -1.1 21 -6.1 69 69 N 21 33 29.85 1011 10 16 0.00 0.00
10:56 am 10:56 Cloudy 31 -0.6 22 -5.6 69 69 N 24 39 29.87 1012 10 16 0.00 0.00
11:56 am 11:56 Cloudy 33 0.6 19 -7.2 56 56 N 23 37 29.88 1012 10 16 0.00 0.00
12:51 pm 12:51 Partly Cloudy 37 3 18 -8 45 45 N 23 37 29.88 1012 10 16 0.00 0.00
12:56 pm 12:56 Mostly Cloudy 36 2.2 18 -7.8 48 48 N 23 37 29.85 1011 10 16 0.00 0.00
1:29 pm 13:29 Partly Cloudy 37 3 18 -8 45 45 NNE 24 39 29.87 1012 10 16 0.00 0.00
1:56 pm 13:56 Mostly Cloudy 37 2.8 17 -8.3 44 44 NNE 25 41 29.84 1010 10 16 0.00 0.00
2:56 pm 14:56 Mostly Cloudy 36 2.2 16 -8.9 44 44 NNE 28 44 29.87 1012 10 16 0.00 0.00
3:56 pm 15:56 Mostly Sunny 34 1.1 15 -9.4 46 46 NNE 24 39 29.91 1013 10 16 0.00 0.00
4:56 pm 16:56 Cloudy 31 -0.6 13 -10.6 47 47 NNE 25 41 29.96 1014 10 16 0.00 0.00
5:56 pm 17:56 Cloudy 30 -1.1 11 -11.7 45 45 N 23 37 30.00 1016 10 16 0.00 0.00
6:56 pm 18:56 Cloudy 28 -2.2 11 -11.7 49 49 N 24 39 30.05 1018 10 16 0.00 0.00
7:56 pm 19:56 Cloudy 26 -3.3 9 -12.8 48 48 N 25 41 30.11 1020 10 16 0.00 0.00
8:56 pm 20:56 Cloudy 26 -3.3 11 -11.7 53 53 N 28 44 30.14 1021 10 16 0.00 0.00
9:56 pm 21:56 Cloudy 25 -3.9 14 -10 63 63 N 31 50 30.18 1022 10 16 0.00 0.00
10:56 pm 22:56 Cloudy 23 -5 16 -8.9 74 74 N 28 44 30.20 1023 10 16 0.00 0.00
11:56 pm 23:56 Cloudy 23 -5 13 -10.6 65 65 NNE 24 39 30.19 1023 10 16 0.00 0.00

Powered by AerisWeather